Location: Oshawa
(43.9000°N, 78.8670°W)
Time: 07:56:33
(UTC-05:00)

Altair - Visible Passes

Search period start: 11 February 2016 00:00
Search period end: 21 February 2016 00:00
Orbit: 1501 x 1683 km, 47.2° (Epoch: 09 February)

Date Brightness Start Highest point End Pass type
(mag) Time Alt. Az. Time Alt. Az. Time Alt. Az.
11 Feb 7.6 19:03:46 10° WSW 19:13:47 84° SSE 19:20:53 23° ENE visible
11 Feb 7.6 21:09:01 10° W 21:18:55 73° NNW 21:18:55 73° NNW visible
11 Feb 9.3 23:14:21 10° WNW 23:16:56 21° WNW 23:16:56 21° WNW visible
12 Feb 7.7 18:38:38 10° WSW 18:48:36 81° SSE 18:57:11 16° ENE visible
12 Feb 7.6 20:43:47 10° W 20:53:55 74° N 20:55:13 67° NE visible
12 Feb 8.9 22:49:08 10° WNW 22:53:14 29° WNW 22:53:14 29° WNW visible
13 Feb 7.7 18:13:31 10° SW 18:23:25 78° SSE 18:33:28 10° ENE visible
13 Feb 7.6 20:18:34 10° W 20:28:40 74° N 20:31:29 53° ENE visible
13 Feb 8.5 22:23:55 10° WNW 22:29:32 39° WNW 22:29:32 39° WNW visible
14 Feb 7.7 19:53:20 10° W 20:03:25 75° N 20:07:46 40° ENE visible
14 Feb 8.1 21:58:44 10° WNW 22:05:48 52° WNW 22:05:48 52° WNW visible
15 Feb 7.7 19:28:06 10° W 19:38:10 76° N 19:44:01 30° ENE visible
15 Feb 7.7 21:33:31 10° WNW 21:42:03 68° WNW 21:42:03 68° WNW visible
15 Feb 9.5 23:38:37 10° WNW 23:40:05 15° WNW 23:40:05 15° WNW visible
16 Feb 7.7 19:02:53 10° W 19:12:55 77° N 19:20:17 22° ENE visible
16 Feb 7.5 21:08:18 10° WNW 21:18:19 82° N 21:18:19 82° N visible
16 Feb 9.2 23:13:24 10° WNW 23:16:20 22° WNW 23:16:20 22° WNW visible
17 Feb 7.7 18:37:40 10° W 18:47:41 78° N 18:56:33 15° ENE visible
17 Feb 7.5 20:43:05 10° WNW 20:53:16 80° NNE 20:54:34 70° ENE visible
17 Feb 8.9 22:48:10 10° WNW 22:52:36 30° W 22:52:36 30° W visible
18 Feb 7.8 18:12:28 10° W 18:22:26 79° NNW 18:32:40 10° ENE visible
18 Feb 7.6 20:17:52 10° WNW 20:28:00 79° NNE 20:30:51 54° E visible
18 Feb 8.5 22:22:57 10° WNW 22:28:52 39° W 22:28:52 39° W visible
19 Feb 7.6 19:52:39 10° WNW 20:02:46 77° N 20:07:08 41° E visible
19 Feb 8.1 21:57:45 10° WNW 22:05:10 51° W 22:05:10 51° W visible
20 Feb 7.7 19:27:27 10° WNW 19:37:32 76° N 19:43:26 30° E visible
20 Feb 7.7 21:32:33 10° WNW 21:41:28 65° WSW 21:41:28 65° WSW visible
20 Feb 9.6 23:38:25 10° WNW 23:39:30 13° W 23:39:30 13° W visible
